This demonstration page uses our WeatherBlox Daily Observations layout. Learn more.

Left ArrowRight Arrow

31.84235, -102.49876

Hourly Observations for May 27, 2017

Temp ( °F °C ) Dew Point ( °F °C ) Humidity (%) Winds ( mph kmh ) Pressure ( in mb ) Visibility ( mi km ) Precip ( " mm )
12:53 am 00:53 Clear 81 27.2 44 6.7 27 27 S 14 22 29.73 1007 10 16 0.00 0.00
1:53 am 01:53 Clear 79 26.1 60 15.6 52 52 S 15 24 29.73 1007 10 16 0.00 0.00
2:53 am 02:53 Clear 77 25 61 16.1 58 58 S 13 20 29.72 1007 10 16 0.00 0.00
3:53 am 03:53 Clear 75 23.9 63 17.2 66 66 SW 8 13 29.73 1007 10 16 0.00 0.00
4:53 am 04:53 Clear 73 22.8 66 18.9 79 79 SW 12 19 29.74 1007 10 16 0.00 0.00
5:53 am 05:53 Clear 73 22.8 65 18.3 76 76 S 8 13 29.73 1007 10 16 0.00 0.00
6:53 am 06:53 Sunny 70 21.1 65 18.3 84 84 WSW 6 9 29.76 1008 9 14 0.00 0.00
7:53 am 07:53 Sunny 72 22.2 66 18.9 82 82 WSW 6 9 29.78 1008 8 13 0.00 0.00
8:53 am 08:53 Sunny 80 26.7 57 13.9 45 45 WSW 8 13 29.78 1009 10 16 0.00 0.00
9:53 am 09:53 Sunny 89 31.7 38 3.3 16 16 WNW 14 22 29.79 1009 10 16 0.00 0.00
10:53 am 10:53 Sunny 92 33.3 30 -1.1 11 11 WNW 22 35 29.79 1009 10 16 0.00 0.00
11:53 am 11:53 Sunny 93 33.9 29 -1.7 10 10 W 17 28 29.79 1009 10 16 0.00 0.00
12:53 pm 12:53 Sunny 95 35 26 -3.3 8 8 WNW 16 26 29.78 1009 10 16 0.00 0.00
1:53 pm 13:53 Sunny 97 36.1 22 -5.6 7 7 W 21 33 29.77 1008 10 16 0.00 0.00
2:53 pm 14:53 Sunny 99 37.2 19 -7.2 5 5 W 21 33 29.74 1007 10 16 0.00 0.00
3:53 pm 15:53 Sunny 99 37.2 17 -8.3 5 5 W 21 33 29.72 1007 10 16 0.00 0.00
4:53 pm 16:53 Sunny 100 37.8 19 -7.2 5 5 WSW 16 26 29.71 1006 10 16 0.00 0.00
5:53 pm 17:53 Sunny 99 37.2 21 -6.1 6 6 W 14 22 29.70 1006 10 16 0.00 0.00
6:53 pm 18:53 Sunny 98 36.7 20 -6.7 6 6 W 15 24 29.70 1006 10 16 0.00 0.00
7:53 pm 19:53 Sunny 96 35.6 22 -5.6 7 7 WNW 15 24 29.69 1006 10 16 0.00 0.00
8:53 pm 20:53 Clear 90 32.2 23 -5 9 9 W 9 15 29.71 1006 10 16 0.00 0.00
9:53 pm 21:53 Clear 85 29.4 26 -3.3 12 12 W 6 9 29.72 1007 10 16 0.00 0.00
10:53 pm 22:53 Clear 82 27.8 26 -3.3 13 13 Calm 29.74 1007 10 16 0.00 0.00
11:53 pm 23:53 Clear 79 26.1 29 -1.7 16 16 S 5 7 29.76 1008 10 16 0.00 0.00

Powered by AerisWeather